Date String (YYYY-MM-DD hh:mm:ss) UTC,Instrument flags,absolute air pressure of the measurement (hPa),sample flow rate (lpm),inlet stack bypass flow (lpm),air temperature of the measurement (°C),ambient temperature measured by the external sensor (°C),aerosol sample conditioner tube jacket temperature (°C),OPC LED temperature (°C),internal box temperature (°C),relative humidity of the measurement (%),span deviation,mass concentration of particles derived from Lorenz-Mie calculation of OPC scattering (μg/m³),mass concentration of particles derived from Lorenz-Mie calculation of OPC scattering (μg/m³),mass concentration of particles derived from Lorenz-Mie calculation of OPC scattering (μg/m³)
DateTimeUTC,F1_M11,P_M11,Q1_M11,Q2_M11,T1_M11,T2_M11,T3_M11,T4_M11,T5_M11,U1_M11,ZSPAN_M11,X0_M11,X2_M11,X1_M11
2023-10-22 19:00:00,SystemResetWarning,0825.5,5.01,000.00,028.5,027.1,000.0,036.9,030.3,18.0,0000.0,0018.40,0005.01,0003.00
2023-10-22 19:01:00,SystemResetWarning,0825.4,5.01,000.00,028.5,027.2,000.0,036.9,030.3,17.9,0000.0,0018.19,0005.04,0003.00
2023-10-22 19:02:00,SystemResetWarning,0825.3,5.00,000.00,028.6,027.4,000.0,037.0,030.4,17.6,0000.0,0018.99,0005.03,0002.97
2023-10-22 19:03:00,SystemResetWarning,0825.3,5.00,000.00,028.6,027.5,000.0,037.0,030.4,17.7,0000.0,0018.50,0005.03,0002.97
2023-10-22 19:04:00,SystemResetWarning,0825.3,5.00,000.00,028.6,027.6,000.0,037.0,030.5,17.9,0000.0,0018.60,0005.03,0002.98
2023-10-22 19:05:00,SystemResetWarning,0825.3,5.00,000.00,028.7,027.7,000.0,037.0,030.5,17.8,0000.0,0019.43,0005.08,0002.98
2023-10-22 19:06:00,SystemResetWarning,0825.3,5.00,000.00,028.7,026.9,000.0,037.0,030.5,17.7,0000.0,0019.31,0005.08,0002.97
2023-10-22 19:07:00,SystemResetWarning,0825.3,5.00,000.00,028.7,025.0,000.0,037.0,030.3,17.6,0000.0,0019.72,0005.06,0002.96
2023-10-22 19:08:00,SystemResetWarning,0825.3,5.01,000.00,028.6,024.2,000.0,036.9,030.1,17.5,0000.0,0021.59,0005.03,0002.96
2023-10-22 19:09:00,SystemResetWarning,0825.3,5.01,000.00,028.5,024.4,000.0,036.9,029.9,17.6,0000.0,0021.78,0005.02,0002.96
2023-10-22 19:10:00,SystemResetWarning,0825.2,5.00,000.00,028.4,024.7,000.0,036.9,029.8,17.9,0000.0,0022.29,0005.09,0002.97
2023-10-22 19:11:00,SystemResetWarning,0825.2,5.00,000.00,028.3,025.2,000.0,036.9,029.8,17.8,0000.0,0022.92,0005.15,0002.97
2023-10-22 19:12:00,SystemResetWarning,0825.2,5.01,000.00,028.3,025.6,000.0,036.9,029.9,17.5,0000.0,0022.73,0005.23,0002.97
2023-10-22 19:13:00,SystemResetWarning,0825.2,5.00,000.00,028.3,025.9,000.0,036.9,030.0,17.5,0000.0,0021.64,0005.20,0002.97
2023-10-22 19:14:00,SystemResetWarning,0825.2,5.00,000.00,028.4,026.3,000.0,036.9,030.0,17.6,0000.0,0021.04,0005.14,0002.95
2023-10-22 19:15:00,SystemResetWarning,0825.2,5.00,000.00,028.4,026.6,000.0,036.9,030.1,17.5,0000.0,0020.21,0005.11,0002.94
2023-10-22 19:16:00,SystemResetWarning,0825.2,5.00,000.00,028.4,026.8,000.0,036.9,030.1,17.3,0000.0,0019.92,0005.14,0002.94
2023-10-22 19:17:00,SystemResetWarning,0825.2,5.01,000.00,028.4,027.0,000.0,036.9,030.2,17.3,0000.0,0020.03,0005.15,0002.96
2023-10-22 19:18:00,SystemResetWarning,0825.2,4.99,000.00,028.5,027.2,000.0,036.9,030.3,17.1,0000.0,0019.44,0005.11,0002.97
2023-10-22 19:19:00,SystemResetWarning,0825.1,4.99,000.00,028.5,027.3,000.0,036.9,030.3,17.2,0000.0,0018.08,0005.06,0002.97
2023-10-22 19:20:00,SystemResetWarning,0825.1,5.00,000.00,028.6,027.5,000.0,036.9,030.4,17.1,0000.0,0017.78,0005.00,0002.95
2023-10-22 19:21:00,SystemResetWarning,0825.2,5.01,000.00,028.6,027.6,000.0,037.0,030.4,17.2,0000.0,0017.94,0004.92,0002.94
2023-10-22 19:22:00,SystemResetWarning,0825.2,5.01,000.00,028.7,027.7,000.0,037.0,030.5,17.1,0000.0,0017.78,0004.86,0002.93
2023-10-22 19:23:00,SystemResetWarning,0825.2,5.00,000.00,028.7,027.1,000.0,037.0,030.5,17.2,0000.0,0017.63,0004.76,0002.93
2023-10-22 19:24:00,SystemResetWarning,0825.1,4.99,000.00,028.6,025.1,000.0,036.9,030.3,17.0,0000.0,0018.56,0004.78,0002.95
2023-10-22 19:25:00,SystemResetWarning,0825.1,5.02,000.00,028.5,024.2,000.0,036.9,030.1,17.0,0000.0,0020.24,0004.84,0002.97
2023-10-22 19:26:00,SystemResetWarning,0825.0,5.00,000.00,028.4,024.3,000.0,036.8,029.9,17.1,0000.0,0021.85,0004.90,0002.98
2023-10-22 19:27:00,SystemResetWarning,0825.0,5.00,000.00,028.3,024.7,000.0,036.8,029.8,17.3,0000.0,0022.59,0004.90,0002.97
2023-10-22 19:28:00,SystemResetWarning,0825.1,5.00,000.00,028.3,025.1,000.0,036.8,029.8,17.3,0000.0,0023.05,0004.87,0002.96
2023-10-22 19:29:00,SystemResetWarning,0825.0,5.01,000.00,028.3,025.6,000.0,036.8,029.9,17.2,0000.0,0023.48,0004.91,0002.97
2023-10-22 19:30:00,SystemResetWarning,0825.0,5.00,000.00,028.3,025.9,000.0,036.8,029.9,17.2,0000.0,0024.65,0004.96,0002.97
2023-10-22 19:31:00,SystemResetWarning,0825.0,5.00,000.00,028.3,026.3,000.0,036.8,030.0,17.2,0000.0,0025.63,0004.97,0002.98
2023-10-22 19:32:00,SystemResetWarning,0825.0,5.01,000.00,028.3,026.5,000.0,036.9,030.1,17.4,0000.0,0025.68,0004.98,0002.99
2023-10-22 19:33:00,SystemResetWarning,0824.9,4.99,000.00,028.4,026.8,000.0,036.9,030.1,17.4,0000.0,0025.17,0005.00,0002.98
2023-10-22 19:34:00,SystemResetWarning,0825.0,4.99,000.00,028.4,027.0,000.0,036.9,030.2,17.2,0000.0,0024.54,0004.99,0003.00
2023-10-22 19:35:00,SystemResetWarning,0825.0,5.00,000.00,028.5,027.2,000.0,036.9,030.2,17.2,0000.0,0023.87,0004.96,0003.00
2023-10-22 19:36:00,SystemResetWarning,0824.9,5.00,000.00,028.5,027.3,000.0,036.9,030.3,17.1,0000.0,0022.71,0004.90,0003.01
2023-10-22 19:37:00,SystemResetWarning,0824.9,5.00,000.00,028.5,027.4,000.0,036.9,030.4,17.2,0000.0,0021.47,0004.83,0003.03
2023-10-22 19:38:00,SystemResetWarning,0824.9,5.00,000.00,028.6,027.5,000.0,036.9,030.4,17.2,0000.0,0020.39,0004.81,0003.06
2023-10-22 19:39:00,SystemResetWarning,0824.9,5.00,000.00,028.6,027.6,000.0,037.0,030.5,17.0,0000.0,0019.94,0004.84,0003.09
2023-10-22 19:40:00,SystemResetWarning,0824.9,5.00,000.00,028.7,027.7,000.0,037.0,030.5,17.0,0000.0,0019.49,0004.78,0003.11
2023-10-22 19:41:00,SystemResetWarning,0824.8,4.99,000.00,028.7,027.3,000.0,037.0,030.5,16.7,0000.0,0019.04,0004.76,0003.14
2023-10-22 19:42:00,SystemResetWarning,0824.9,5.00,000.00,028.7,025.6,000.0,037.0,030.4,16.4,0000.0,0018.21,0004.76,0003.17
2023-10-22 19:43:00,SystemResetWarning,0824.9,5.02,000.00,028.6,025.1,000.0,036.9,030.3,16.4,0000.0,0017.60,0004.73,0003.20
2023-10-22 19:44:00,SystemResetWarning,0824.9,4.99,000.00,028.6,025.3,000.0,036.9,030.1,16.3,0000.0,0019.39,0004.68,0003.21
2023-10-22 19:45:00,SystemResetWarning,0824.8,5.00,000.00,028.5,025.6,000.0,036.9,030.1,16.2,0000.0,0020.72,0004.75,0003.23
2023-10-22 19:46:00,SystemResetWarning,0824.7,5.00,000.00,028.5,025.9,000.0,036.9,030.1,16.0,0000.0,0020.74,0004.78,0003.24
2023-10-22 19:47:00,SystemResetWarning,0824.7,5.01,000.00,028.5,026.3,000.0,037.0,030.1,16.0,0000.0,0021.33,0004.83,0003.24
2023-10-22 19:48:00,SystemResetWarning,0824.7,4.99,000.00,028.5,026.6,000.0,037.0,030.2,16.3,0000.0,0021.32,0004.84,0003.25
2023-10-22 19:49:00,SystemResetWarning,0824.7,5.00,000.00,028.5,026.8,000.0,037.0,030.3,16.3,0000.0,0020.96,0004.88,0003.26
2023-10-22 19:50:00,SystemResetWarning,0824.7,5.00,000.00,028.6,027.0,000.0,037.0,030.3,16.4,0000.0,0020.92,0004.86,0003.25
2023-10-22 19:51:00,SystemResetWarning,0824.7,5.00,000.00,028.6,027.2,000.0,037.0,030.4,16.5,0000.0,0021.42,0004.91,0003.25
2023-10-22 19:52:00,SystemResetWarning,0824.7,5.00,000.00,028.7,027.4,000.0,037.0,030.4,16.7,0000.0,0021.42,0004.90,0003.23
2023-10-22 19:53:00,SystemResetWarning,0824.7,5.00,000.00,028.7,027.6,000.0,037.1,030.5,16.8,0000.0,0020.80,0004.91,0003.22
2023-10-22 19:54:00,SystemResetWarning,0824.7,5.00,000.00,028.7,027.6,000.0,037.1,030.5,16.9,0000.0,0021.01,0004.88,0003.21
2023-10-22 19:55:00,SystemResetWarning,0824.7,4.99,000.00,028.7,026.1,000.0,037.0,030.4,16.8,0000.0,0019.27,0004.93,0003.20
2023-10-22 19:56:00,SystemResetWarning,0824.7,5.01,000.00,028.6,024.4,000.0,037.0,030.2,16.8,0000.0,0017.93,0004.89,0003.21
2023-10-22 19:57:00,SystemResetWarning,0824.7,5.01,000.00,028.6,024.2,000.0,036.9,030.1,16.9,0000.0,0017.85,0004.93,0003.23
2023-10-22 19:58:00,SystemResetWarning,0824.7,5.00,000.00,028.4,024.5,000.0,036.9,029.9,17.0,0000.0,0017.46,0004.92,0003.23
2023-10-22 19:59:00,SystemResetWarning,0824.7,4.99,000.00,028.4,025.0,000.0,036.9,029.9,17.2,0000.0,0017.36,0005.03,0003.24
